Location: Chinna Viriv?da
(16.5281°N, 81.0493°E)
Time: 15:24:28
(UTC+00:00)

UNK - Pass Details

Date: 14 April 2026
Orbit: 653 x 673 km, 98.4° (Epoch: 11 May)

Event Time Altitude Azimuth Distance (km) Brightness Sun altitude
Rises 23:42:27 0° 174° (S) 3,006 7.0 -9.8°
Reaches altitude 10° 23:44:42 10° 177° (S) 2,095 6.2 -9.3°
Maximum altitude 23:49:14 64° 259° (WSW) 740 3.7 -8.3°
Drops below altitude 10° 23:53:47 10° 340° (NNW) 2,098 6.2 -7.2°
Sets 23:56:02 0° 344° (NNW) 3,011 7.0 -6.7°
